User: anonymous
Location: Unspecified
(42.0334°N, 93.6656°W)
Time: 21:50:33
(UTC-05:00)
Language:

Iridium 63 - Orbit

View from above orbital plane
View from above orbital plane
View from above satellite
View from above satellite

Ground track
Ground track

The orbit data is extracted from the following two-line orbital elements,

1 25286U 98021B   14258.46085635  .00000294  00000-0  97965-4 0  9658
2 25286 086.3953 284.5745 0002432 110.1295 013.2589 14.34230567860865
Epoch (UTC): 15 September 2014 11:03:37
Eccentricity: 0.0002432
inclination: 86.3953°
perigee height: 776 km
apogee height: 779 km
right ascension of ascending node: 284.5745°
argument of perigee: 110.1295°
revolutions per day: 14.34230567
mean anomaly at epoch: 13.2589°
orbit number at epoch: 86086

The dashed part of the orbit path shows where the satellite is in the earth's shadow,  

DLR